TimeCDT,TemperatureF,Dew PointF,Humidity,Sea Level PressureIn,VisibilityMPH,Wind Direction,Wind SpeedMPH,Gust SpeedMPH,PrecipitationIn,Events,Conditions,WindDirDegrees,DateUTC
12:53 AM,51.1,37.9,61,29.86,10.0,North,8.1,-,N/A,,Mostly Cloudy,350,2014-04-08 05:53:00
1:53 AM,50.0,37.9,63,29.86,10.0,NNW,6.9,-,0.00,,Clear,340,2014-04-08 06:53:00
2:53 AM,46.9,37.0,68,29.87,10.0,NW,6.9,-,N/A,,Scattered Clouds,310,2014-04-08 07:53:00
3:53 AM,46.0,37.0,71,29.88,10.0,NW,8.1,-,N/A,,Clear,310,2014-04-08 08:53:00
4:53 AM,44.1,36.0,73,29.88,10.0,NW,8.1,-,N/A,,Clear,310,2014-04-08 09:53:00
5:53 AM,43.0,34.0,71,29.91,10.0,NW,9.2,-,N/A,,Partly Cloudy,320,2014-04-08 10:53:00
7:53 AM,46.0,33.1,61,29.96,10.0,North,11.5,20.7,N/A,,Overcast,350,2014-04-08 12:53:00
8:53 AM,44.1,37.0,76,29.98,10.0,NNW,10.4,-,0.01,,Mostly Cloudy,330,2014-04-08 13:53:00
9:53 AM,48.9,37.9,66,29.99,10.0,North,12.7,-,N/A,,Clear,350,2014-04-08 14:53:00
10:53 AM,52.0,35.1,53,30.00,10.0,NNW,15.0,20.7,N/A,,Scattered Clouds,330,2014-04-08 15:53:00
11:53 AM,54.0,33.1,45,30.01,10.0,NNW,17.3,27.6,N/A,,Mostly Cloudy,330,2014-04-08 16:53:00
12:53 PM,54.0,30.9,41,30.01,10.0,North,18.4,25.3,N/A,,Mostly Cloudy,360,2014-04-08 17:53:00
1:53 PM,54.0,30.9,41,30.02,10.0,NNW,18.4,24.2,N/A,,Mostly Cloudy,340,2014-04-08 18:53:00
2:53 PM,55.0,28.0,35,30.02,10.0,North,20.7,28.8,N/A,,Mostly Cloudy,350,2014-04-08 19:53:00
3:53 PM,55.9,28.9,36,30.01,10.0,NNW,16.1,27.6,N/A,,Scattered Clouds,340,2014-04-08 20:53:00
4:53 PM,57.0,27.0,32,30.02,10.0,North,20.7,25.3,N/A,,Partly Cloudy,10,2014-04-08 21:53:00
5:53 PM,57.9,25.0,28,30.03,10.0,North,17.3,23.0,N/A,,Scattered Clouds,350,2014-04-08 22:53:00
6:53 PM,55.9,24.1,29,30.04,10.0,NNW,12.7,21.9,N/A,,Clear,340,2014-04-08 23:53:00
7:53 PM,53.1,25.0,34,30.06,10.0,NNW,6.9,-,N/A,,Clear,330,2014-04-09 00:53:00
8:53 PM,50.0,26.1,39,30.09,10.0,WNW,4.6,-,N/A,,Clear,300,2014-04-09 01:53:00
9:53 PM,48.9,25.0,39,30.10,10.0,NW,4.6,-,N/A,,Clear,320,2014-04-09 02:53:00
10:53 PM,46.0,25.0,44,30.10,10.0,WNW,4.6,-,N/A,,Clear,290,2014-04-09 03:53:00
11:53 PM,44.1,25.0,47,30.09,10.0,WNW,3.5,-,N/A,,Clear,290,2014-04-09 04:53:00